"SCLK","SCET","ORBIT_NUMBER","ALTITUDE","LATITUDE_PLANEOGRAPHIC","LATITUDE_PLANETOCENTRIC","LOCAL_TRUE_SOLAR_TIME","WEST_LONGITUDE","X_SUN_DIR_DISTANCE","RHO_PRP_SUN_DISTANCE","SOLAR_ZENITH_ANGLE","ELECTRON_PLASMA_FREQUENCY","FPE_QUALITY","FPP_VERIFICATION","ELECTRON_PLASMA_DENSITY","ELECTRON_CYCLOTRON_PERIOD","FCP_QUALITY","B_MAGNITUDE"
"1/0366226475.60687",2014-12-09T17:34:39.908,13884,983.00,53.72,53.43,"01:20:36",287.88,-1.040,0.760,143.76,,,,,3.25e+00,1,1.10e+01
"1/0366226483.30802",2014-12-09T17:34:47.452,13884,974.00,54.08,53.79,"01:27:36",287.85,-1.030,0.760,143.48,,,,,3.26e+00,1,1.09e+01
"1/0366226498.36438",2014-12-09T17:35:02.538,13884,956.00,54.80,54.52,"01:39:19",287.80,-1.020,0.770,142.91,,,,,3.25e+00,1,1.10e+01
"1/0366226513.42075",2014-12-09T17:35:17.624,13884,938.00,55.53,55.25,"01:53:18",287.74,-1.010,0.770,142.32,,,,,3.02e+00,1,1.18e+01
"1/0366226521.12190",2014-12-09T17:35:25.168,13884,930.00,55.90,55.61,"02:00:18",287.71,-1.000,0.780,142.03,,,,,2.88e+00,1,1.24e+01
"1/0366226536.17826",2014-12-09T17:35:40.254,13884,912.00,56.64,56.35,"02:16:35",287.64,-0.990,0.780,141.44,,,,,2.70e+00,1,1.32e+01
"1/0366226543.53412",2014-12-09T17:35:47.797,13884,904.00,57.01,56.73,"02:23:35",287.61,-0.990,0.790,141.14,,,,,2.50e+00,1,1.43e+01
"1/0366226551.23462",2014-12-09T17:35:55.340,13884,895.00,57.38,57.10,"02:32:53",287.57,-0.980,0.790,140.83,,,,,2.42e+00,1,1.47e+01
"1/0366226558.59114",2014-12-09T17:36:02.884,13884,887.00,57.76,57.48,"02:42:10",287.53,-0.970,0.800,140.53,4.43e+01,2,,2.43e+01,2.72e+00,1,1.31e+01
"1/0366226573.64750",2014-12-09T17:36:17.970,13884,870.00,58.51,58.23,"03:00:45",287.45,-0.960,0.800,139.91,4.70e+01,2,,2.73e+01,,,
"1/0366226687.08913",2014-12-09T17:38:11.118,13884,751.00,64.33,64.08,"06:31:08",286.54,-0.860,0.860,135.02,4.25e+01,1,,2.24e+01,,,
"1/0366226694.44499",2014-12-09T17:38:18.661,13884,744.00,64.73,64.48,"06:51:53",286.45,-0.860,0.860,134.68,4.75e+01,1,,2.80e+01,,,
"1/0366226702.14549",2014-12-09T17:38:26.204,13884,736.00,65.13,64.88,"07:12:38",286.36,-0.850,0.860,134.33,4.88e+01,2,,2.96e+01,,,
"1/0366226709.50200",2014-12-09T17:38:33.748,13884,729.00,65.53,65.28,"07:33:23",286.27,-0.840,0.870,133.99,4.90e+01,2,,2.98e+01,,,
"1/0366226717.20250",2014-12-09T17:38:41.291,13884,722.00,65.93,65.69,"07:56:25",286.17,-0.840,0.870,133.64,6.33e+01,2,,4.97e+01,,,
"1/0366226724.55836",2014-12-09T17:38:48.834,13884,714.00,66.33,66.10,"08:19:28",286.07,-0.830,0.870,133.29,5.15e+01,2,,3.29e+01,,,
"1/0366226770.07274",2014-12-09T17:39:34.093,13884,672.00,68.78,68.56,"11:05:13",285.35,-0.790,0.900,131.14,4.25e+01,2,,2.24e+01,,,
"1/0366226777.42860",2014-12-09T17:39:41.636,13884,666.00,69.20,68.98,"11:37:25",285.21,-0.780,0.900,130.78,3.70e+01,1,,1.70e+01,3.11e+00,1,1.15e+01
"1/0366226792.48562",2014-12-09T17:39:56.723,13884,652.00,70.03,69.81,"12:48:43",284.90,-0.770,0.910,130.05,,,,,2.59e+00,1,1.38e+01
"1/0366226800.18612",2014-12-09T17:40:04.266,13884,646.00,70.44,70.23,"13:25:30",284.74,-0.760,0.910,129.68,3.80e+01,2,,1.79e+01,2.55e+00,1,1.40e+01
"1/0366226807.54198",2014-12-09T17:40:11.809,13884,639.00,70.86,70.65,"14:06:53",284.56,-0.750,0.910,129.31,5.57e+01,2,,3.84e+01,,,
"1/0366226815.24313",2014-12-09T17:40:19.353,13884,633.00,71.28,71.07,"14:48:15",284.38,-0.740,0.920,128.94,6.82e+01,2,,5.76e+01,2.27e+00,1,1.58e+01
"1/0366226822.59899",2014-12-09T17:40:26.896,13884,627.00,71.69,71.50,"15:34:13",284.18,-0.740,0.920,128.56,6.22e+01,2,,4.80e+01,,,
"1/0366226830.29949",2014-12-09T17:40:34.439,13884,620.00,72.11,71.92,"16:20:10",283.98,-0.730,0.920,128.19,4.87e+01,2,,2.94e+01,,,
"1/0366226837.65535",2014-12-09T17:40:41.982,13884,614.00,72.54,72.35,"17:10:43",283.76,-0.720,0.930,127.81,5.77e+01,2,,4.13e+01,,,
"1/0366226845.35585",2014-12-09T17:40:49.525,13884,608.00,72.96,72.77,"18:03:33",283.53,-0.720,0.930,127.43,5.47e+01,2,,3.71e+01,,,
"1/0366226853.05701",2014-12-09T17:40:57.069,13884,602.00,73.38,73.20,"18:58:40",283.29,-0.710,0.930,127.05,7.22e+01,2,,6.47e+01,,,
"1/0366226860.41287",2014-12-09T17:41:04.612,13884,596.00,73.80,73.63,"19:56:06",283.04,-0.700,0.940,126.67,5.40e+01,2,,3.61e+01,,,
"1/0366226868.11337",2014-12-09T17:41:12.155,13884,590.00,74.23,74.05,"21:00:23",282.76,-0.690,0.940,126.28,5.50e+01,2,,3.76e+01,,,
"1/0366226875.46923",2014-12-09T17:41:19.698,13884,584.00,74.65,74.48,"22:06:58",282.47,-0.690,0.940,125.90,5.06e+01,2,,3.17e+01,,,
"1/0366226883.16973",2014-12-09T17:41:27.241,13884,579.00,75.08,74.91,"23:18:08",282.16,-0.680,0.950,125.51,4.59e+01,2,,2.62e+01,2.85e+00,1,1.25e+01
"1/0366226890.52625",2014-12-09T17:41:34.785,13884,573.00,75.51,75.34,"00:33:54",281.83,-0.670,0.950,125.12,4.71e+01,2,,2.75e+01,,,
"1/0366226898.22675",2014-12-09T17:41:42.328,13884,567.00,75.93,75.78,"01:54:14",281.48,-0.660,0.950,124.73,4.68e+01,1,,2.71e+01,,,
"1/0366226905.58261",2014-12-09T17:41:49.871,13884,562.00,76.36,76.21,"03:21:26",281.10,-0.660,0.960,124.34,4.70e+01,2,,2.74e+01,,,
"1/0366226913.28311",2014-12-09T17:41:57.414,13884,556.00,76.79,76.64,"04:53:14",280.70,-0.650,0.960,123.95,5.45e+01,2,,3.69e+01,,,
"1/0366226920.63897",2014-12-09T17:42:04.957,13884,551.00,77.22,77.07,"06:31:54",280.27,-0.640,0.960,123.55,7.97e+01,2,,7.87e+01,2.80e+00,1,1.28e+01
"1/0366226928.34012",2014-12-09T17:42:12.501,13884,546.00,77.65,77.51,"08:19:45",279.80,-0.630,0.970,123.16,8.39e+01,2,,8.74e+01,2.62e+00,1,1.36e+01
"1/0366226936.04062",2014-12-09T17:42:20.044,13884,540.00,78.08,77.94,"10:14:28",279.30,-0.630,0.970,122.76,7.60e+01,2,,7.16e+01,2.65e+00,1,1.35e+01
"1/0366226943.39648",2014-12-09T17:42:27.587,13884,535.00,78.51,78.37,"12:20:38",278.75,-0.620,0.970,122.36,7.56e+01,2,,7.09e+01,2.63e+00,1,1.36e+01
"1/0366226951.09698",2014-12-09T17:42:35.130,13884,530.00,78.94,78.81,"14:35:58",278.16,-0.610,0.970,121.96,7.32e+01,2,,6.65e+01,,,
"1/0366226958.45284",2014-12-09T17:42:42.673,13884,525.00,79.36,79.24,"17:02:46",277.52,-0.600,0.980,121.56,9.35e+01,2,,1.08e+02,2.62e+00,2,1.36e+01
"1/0366226966.15400",2014-12-09T17:42:50.217,13884,520.00,79.79,79.67,"19:41:02",276.83,-0.590,0.980,121.15,9.70e+01,2,,1.17e+02,2.58e+00,2,1.38e+01
"1/0366226973.50986",2014-12-09T17:42:57.760,13884,516.00,80.22,80.10,"22:37:37",276.06,-0.590,0.980,120.75,9.80e+01,2,,1.19e+02,2.43e+00,2,1.47e+01
"1/0366226981.21036",2014-12-09T17:43:05.303,13884,511.00,80.65,80.54,"01:47:58",275.23,-0.580,0.990,120.34,1.04e+02,2,,1.34e+02,2.38e+00,2,1.50e+01
"1/0366226988.56622",2014-12-09T17:43:12.846,13884,506.00,81.07,80.96,"05:21:14",274.30,-0.570,0.990,119.93,1.06e+02,2,,1.40e+02,2.38e+00,1,1.50e+01
"1/0366226996.26672",2014-12-09T17:43:20.389,13884,502.00,81.49,81.39,"09:12:50",273.29,-0.560,0.990,119.52,1.11e+02,2,,1.53e+02,2.21e+00,2,1.62e+01
"1/0366227003.62324",2014-12-09T17:43:27.933,13884,497.00,81.92,81.82,"13:31:56",272.16,-0.560,1.000,119.11,1.08e+02,2,,1.45e+02,2.08e+00,2,1.72e+01
"1/0366227011.32374",2014-12-09T17:43:35.476,13884,493.00,82.33,82.24,"18:20:49",270.90,-0.550,1.000,118.70,1.23e+02,2,,1.88e+02,2.08e+00,1,1.72e+01
"1/0366227019.02424",2014-12-09T17:43:43.019,13884,489.00,82.75,82.66,"23:44:05",269.49,-0.540,1.000,118.29,1.57e+02,2,,3.05e+02,2.03e+00,2,1.76e+01
"1/0366227026.38010",2014-12-09T17:43:50.562,13884,484.00,83.16,83.08,"05:46:19",267.91,-0.530,1.000,117.88,1.76e+02,2,,3.86e+02,1.92e+00,2,1.86e+01
"1/0366227034.08060",2014-12-09T17:43:58.105,13884,480.00,83.57,83.49,"12:36:41",266.12,-0.520,1.010,117.46,1.56e+02,2,,3.04e+02,1.81e+00,2,1.98e+01
"1/0366227041.43711",2014-12-09T17:44:05.649,13884,476.00,83.97,83.89,"20:24:20",264.08,-0.520,1.010,117.04,1.71e+02,2,,3.61e+02,1.88e+00,2,1.90e+01
"1/0366227049.13761",2014-12-09T17:44:13.192,13884,472.00,84.36,84.29,"05:20:45",261.74,-0.510,1.010,116.63,1.77e+02,2,,3.89e+02,1.95e+00,2,1.83e+01
"1/0366227056.49347",2014-12-09T17:44:20.735,13884,468.00,84.74,84.67,"15:35:05",259.06,-0.500,1.010,116.21,1.93e+02,2,,4.60e+02,2.07e+00,2,1.73e+01
"1/0366227064.19397",2014-12-09T17:44:28.278,13884,464.00,85.11,85.04,"03:27:58",255.95,-0.490,1.020,115.79,2.01e+02,2,,5.01e+02,2.13e+00,1,1.68e+01
"1/0366227071.54983",2014-12-09T17:44:35.821,13884,461.00,85.46,85.40,"17:13:09",252.35,-0.480,1.020,115.37,2.00e+02,2,,4.98e+02,2.14e+00,2,1.67e+01
"1/0366227079.25099",2014-12-09T17:44:43.365,13884,457.00,85.79,85.74,"09:18:08",248.14,-0.480,1.020,114.94,1.93e+02,2,,4.63e+02,1.96e+00,2,1.83e+01
"1/0366227086.60685",2014-12-09T17:44:50.908,13884,454.00,86.09,86.04,"04:03:32",243.23,-0.470,1.030,114.52,1.91e+02,2,,4.53e+02,1.97e+00,2,1.81e+01
"1/0366227094.30735",2014-12-09T17:44:58.451,13884,450.00,86.37,86.32,"01:50:00",237.53,-0.460,1.030,114.10,1.94e+02,2,,4.67e+02,1.98e+00,2,1.81e+01
"1/0366227102.00785",2014-12-09T17:45:05.994,13884,447.00,86.60,86.55,"02:53:34",230.97,-0.450,1.030,113.67,1.84e+02,2,,4.18e+02,2.05e+00,2,1.74e+01
"1/0366227109.36371",2014-12-09T17:45:13.537,13884,444.00,86.78,86.73,"07:11:56",223.56,-0.440,1.030,113.24,1.86e+02,2,,4.27e+02,2.13e+00,2,1.68e+01
"1/0366227117.06487",2014-12-09T17:45:21.081,13884,440.00,86.90,86.85,"14:19:54",215.41,-0.440,1.040,112.82,1.80e+02,2,,4.02e+02,2.12e+00,2,1.68e+01
"1/0366227124.42073",2014-12-09T17:45:28.624,13884,437.00,86.95,86.91,"23:17:53",206.78,-0.430,1.040,112.39,1.75e+02,2,,3.78e+02,2.14e+00,2,1.67e+01
"1/0366227132.12123",2014-12-09T17:45:36.167,13884,434.00,86.93,86.89,"08:41:04",198.04,-0.420,1.040,111.96,1.93e+02,2,,4.63e+02,2.31e+00,2,1.54e+01
"1/0366227139.47709",2014-12-09T17:45:43.710,13884,431.00,86.84,86.80,"16:57:47",189.59,-0.410,1.040,111.53,1.85e+02,2,,4.23e+02,2.37e+00,1,1.51e+01
"1/0366227147.17759",2014-12-09T17:45:51.253,13884,429.00,86.69,86.64,"22:52:24",181.76,-0.400,1.040,111.10,1.60e+02,2,,3.15e+02,2.33e+00,1,1.53e+01
"1/0366227154.53410",2014-12-09T17:45:58.797,13884,426.00,86.48,86.43,"01:45:59",174.72,-0.390,1.050,110.67,1.46e+02,2,,2.64e+02,2.20e+00,1,1.63e+01
"1/0366227162.23460",2014-12-09T17:46:06.340,13884,423.00,86.22,86.17,"01:17:52",168.56,-0.390,1.050,110.24,1.53e+02,2,,2.92e+02,2.22e+00,2,1.61e+01
"1/0366227169.59046",2014-12-09T17:46:13.883,13884,421.00,85.92,85.87,"21:39:32",163.23,-0.380,1.050,109.80,1.80e+02,2,,4.01e+02,2.30e+00,2,1.55e+01
"1/0366227177.29096",2014-12-09T17:46:21.426,13884,418.00,85.59,85.54,"15:07:01",158.66,-0.370,1.050,109.37,1.55e+02,2,,2.99e+02,2.19e+00,2,1.63e+01
"1/0366227184.64682",2014-12-09T17:46:28.969,13884,416.00,85.24,85.18,"06:05:33",154.74,-0.360,1.060,108.93,1.42e+02,2,,2.52e+02,2.07e+00,2,1.73e+01
"1/0366227192.34798",2014-12-09T17:46:36.513,13884,414.00,84.87,84.81,"18:58:01",151.37,-0.350,1.060,108.50,1.38e+02,2,,2.35e+02,1.94e+00,2,1.84e+01
"1/0366227200.04848",2014-12-09T17:46:44.056,13884,411.00,84.48,84.41,"06:05:04",148.46,-0.340,1.060,108.06,1.63e+02,2,,3.29e+02,1.98e+00,2,1.80e+01
"1/0366227207.40434",2014-12-09T17:46:51.599,13884,409.00,84.08,84.01,"15:40:26",145.95,-0.340,1.060,107.62,1.74e+02,2,,3.78e+02,2.06e+00,2,1.73e+01
"1/0366227215.10484",2014-12-09T17:46:59.142,13884,407.00,83.67,83.59,"00:04:45",143.75,-0.330,1.060,107.19,1.40e+02,2,,2.42e+02,1.91e+00,1,1.87e+01
"1/0366227222.46070",2014-12-09T17:47:06.685,13884,405.00,83.25,83.17,"07:24:55",141.83,-0.320,1.070,106.75,1.36e+02,2,,2.28e+02,1.85e+00,2,1.93e+01
"1/0366227230.16186",2014-12-09T17:47:14.229,13884,404.00,82.82,82.73,"13:52:21",140.14,-0.310,1.070,106.31,1.87e+02,2,,4.35e+02,1.95e+00,2,1.84e+01
"1/0366227237.51772",2014-12-09T17:47:21.772,13884,402.00,82.39,82.29,"19:36:15",138.64,-0.300,1.070,105.87,1.97e+02,2,,4.83e+02,2.31e+00,1,1.55e+01
"1/0366227245.21822",2014-12-09T17:47:29.315,13884,400.00,81.95,81.85,"00:43:29",137.30,-0.290,1.070,105.43,2.39e+02,2,,7.10e+02,2.95e+00,1,1.21e+01
"1/0366227252.57408",2014-12-09T17:47:36.858,13884,399.00,81.51,81.40,"05:18:37",136.10,-0.290,1.070,104.99,2.31e+02,2,,6.60e+02,,,
"1/0366227260.27458",2014-12-09T17:47:44.401,13884,397.00,81.06,80.95,"09:23:58",135.03,-0.280,1.080,104.55,2.65e+02,2,,8.71e+02,,,
"1/0366227267.63109",2014-12-09T17:47:51.945,13884,396.00,80.61,80.49,"13:06:24",134.06,-0.270,1.080,104.10,2.38e+02,2,,6.99e+02,3.19e+00,1,1.12e+01
"1/0366227275.33159",2014-12-09T17:47:59.488,13884,395.00,80.15,80.03,"16:30:30",133.17,-0.260,1.080,103.66,2.49e+02,2,,7.68e+02,,,
"1/0366227283.03209",2014-12-09T17:48:07.031,13884,394.00,79.70,79.57,"19:33:58",132.37,-0.250,1.080,103.22,2.46e+02,2,,7.53e+02,3.17e+00,1,1.13e+01
"1/0366227290.38795",2014-12-09T17:48:14.574,13884,393.00,79.24,79.11,"22:21:23",131.64,-0.240,1.080,102.78,2.46e+02,2,,7.50e+02,3.28e+00,1,1.09e+01
"1/0366227298.08845",2014-12-09T17:48:22.117,13884,392.00,78.78,78.64,"00:55:04",130.97,-0.230,1.080,102.33,2.42e+02,2,,7.26e+02,3.13e+00,1,1.14e+01
"1/0366227305.44497",2014-12-09T17:48:29.661,13884,391.00,78.32,78.18,"03:17:17",130.35,-0.230,1.090,101.89,2.38e+02,2,,6.99e+02,,,
"1/0366227313.14547",2014-12-09T17:48:37.204,13884,390.00,77.85,77.71,"05:28:02",129.78,-0.220,1.090,101.45,2.24e+02,2,,6.25e+02,,,
"1/0366227320.50133",2014-12-09T17:48:44.747,13884,390.00,77.39,77.24,"07:27:20",129.26,-0.210,1.090,101.00,1.85e+02,2,,4.24e+02,2.85e+00,2,1.25e+01
"1/0366227328.20183",2014-12-09T17:48:52.290,13884,389.00,76.92,76.77,"09:19:45",128.77,-0.200,1.090,100.56,1.84e+02,2,,4.18e+02,2.86e+00,1,1.25e+01
"1/0366227335.55835",2014-12-09T17:48:59.834,13884,388.00,76.46,76.30,"11:03:01",128.32,-0.190,1.090,100.11,1.80e+02,2,,4.00e+02,2.87e+00,1,1.24e+01
"1/0366227343.25885",2014-12-09T17:49:07.377,13884,388.00,75.99,75.82,"12:39:23",127.90,-0.180,1.090,99.67,1.87e+02,2,,4.35e+02,2.94e+00,1,1.21e+01
"1/0366227350.61471",2014-12-09T17:49:14.920,13884,388.00,75.52,75.35,"14:08:54",127.51,-0.170,1.090,99.22,1.81e+02,2,,4.08e+02,2.64e+00,1,1.35e+01
"1/0366227358.31521",2014-12-09T17:49:22.463,13884,388.00,75.05,74.87,"15:33:49",127.14,-0.170,1.100,98.78,1.83e+02,2,,4.16e+02,2.47e+00,2,1.45e+01
"1/0366227366.01571",2014-12-09T17:49:30.006,13884,388.00,74.58,74.40,"16:51:51",126.80,-0.160,1.100,98.33,1.93e+02,2,,4.60e+02,,,
"1/0366227373.37222",2014-12-09T17:49:37.550,13884,388.00,74.11,73.92,"18:05:19",126.48,-0.150,1.100,97.88,1.89e+02,2,,4.43e+02,2.31e+00,1,1.54e+01
"1/0366227381.07272",2014-12-09T17:49:45.093,13884,388.00,73.64,73.44,"19:14:12",126.18,-0.140,1.100,97.44,1.86e+02,2,,4.27e+02,2.13e+00,2,1.68e+01
"1/0366227388.42858",2014-12-09T17:49:52.636,13884,388.00,73.16,72.97,"20:18:29",125.90,-0.130,1.100,96.99,1.68e+02,2,,3.51e+02,2.00e+00,1,1.78e+01
"1/0366227396.12908",2014-12-09T17:50:00.179,13884,388.00,72.69,72.49,"21:20:29",125.63,-0.120,1.100,96.55,1.83e+02,2,,4.14e+02,2.09e+00,2,1.71e+01
"1/0366227403.48494",2014-12-09T17:50:07.722,13884,389.00,72.22,72.01,"22:17:54",125.38,-0.110,1.100,96.10,1.99e+02,2,,4.91e+02,2.07e+00,2,1.72e+01
"1/0366227411.18610",2014-12-09T17:50:15.266,13884,389.00,71.74,71.53,"23:13:02",125.14,-0.110,1.100,95.65,2.08e+02,2,,5.34e+02,2.07e+00,2,1.73e+01
"1/0366227418.54196",2014-12-09T17:50:22.809,13884,390.00,71.27,71.06,"00:03:35",124.92,-0.100,1.100,95.21,2.23e+02,2,,6.14e+02,2.18e+00,2,1.64e+01
"1/0366227426.24246",2014-12-09T17:50:30.352,13884,390.00,70.80,70.58,"00:51:50",124.71,-0.090,1.110,94.76,2.58e+02,2,,8.24e+02,2.20e+00,2,1.62e+01
"1/0366227433.59832",2014-12-09T17:50:37.895,13884,391.00,70.32,70.10,"01:37:47",124.51,-0.080,1.110,94.32,2.03e+02,2,,5.11e+02,2.11e+00,2,1.69e+01
"1/0366227441.29882",2014-12-09T17:50:45.438,13884,392.00,69.85,69.62,"02:21:27",124.32,-0.070,1.110,93.87,1.81e+02,2,,4.08e+02,1.92e+00,2,1.86e+01
"1/0366227448.65534",2014-12-09T17:50:52.982,13884,393.00,69.37,69.14,"03:02:50",124.14,-0.060,1.110,93.43,1.95e+02,2,,4.72e+02,1.84e+00,2,1.94e+01
"1/0366227456.35584",2014-12-09T17:51:00.525,13884,394.00,68.90,68.66,"03:41:55",123.97,-0.050,1.110,92.98,2.57e+02,2,,8.18e+02,1.75e+00,2,2.04e+01
"1/0366227464.05634",2014-12-09T17:51:08.068,13884,395.00,68.43,68.19,"04:18:42",123.81,-0.040,1.110,92.54,3.42e+02,2,,1.45e+03,1.72e+00,1,2.08e+01
"1/0366227471.41220",2014-12-09T17:51:15.611,13884,397.00,67.95,67.71,"04:55:30",123.65,-0.040,1.110,92.09,2.72e+02,2,,9.19e+02,1.54e+00,1,2.32e+01
"1/0366227479.11270",2014-12-09T17:51:23.154,13884,398.00,67.48,67.23,"05:27:42",123.51,-0.030,1.110,91.65,2.92e+02,2,,1.06e+03,1.95e+00,1,1.83e+01
"1/0366227486.46921",2014-12-09T17:51:30.698,13884,399.00,67.00,66.75,"05:59:55",123.37,-0.020,1.110,91.20,2.80e+02,2,,9.76e+02,2.33e+00,1,1.53e+01
"1/0366227494.16971",2014-12-09T17:51:38.241,13884,401.00,66.53,66.27,"06:29:50",123.24,-0.010,1.110,90.76,3.10e+02,2,,1.19e+03,,,
"1/0366227501.52557",2014-12-09T17:51:45.784,13884,403.00,66.06,65.80,"06:59:45",123.11,-0.000,1.110,90.31,2.96e+02,2,,1.08e+03,,,
"1/0366227509.22607",2014-12-09T17:51:53.327,13884,404.00,65.58,65.32,"07:27:22",122.99,0.010,1.110,89.87,2.81e+02,2,,9.81e+02,,,
"1/0366227516.58193",2014-12-09T17:52:00.870,13884,406.00,65.11,64.84,"07:55:00",122.87,0.020,1.110,89.43,1.52e+02,2,,2.88e+02,1.88e+00,1,1.90e+01
"1/0366227524.28309",2014-12-09T17:52:08.414,13884,408.00,64.64,64.37,"08:20:19",122.76,0.020,1.110,88.98,1.47e+02,2,,2.67e+02,1.94e+00,2,1.84e+01
"1/0366227531.63895",2014-12-09T17:52:15.957,13884,410.00,64.17,63.89,"08:43:22",122.66,0.030,1.110,88.54,1.59e+02,2,,3.14e+02,1.84e+00,1,1.94e+01
"1/0366227539.33945",2014-12-09T17:52:23.500,13884,412.00,63.69,63.41,"09:06:24",122.56,0.040,1.120,88.10,1.30e+02,2,,2.11e+02,1.74e+00,2,2.05e+01
"1/0366227547.03995",2014-12-09T17:52:31.043,13884,414.00,63.22,62.94,"09:29:27",122.46,0.050,1.120,87.66,1.73e+02,2,,3.71e+02,2.05e+00,1,1.74e+01
"1/0366227554.39581",2014-12-09T17:52:38.586,13884,417.00,62.75,62.47,"09:50:12",122.37,0.060,1.120,87.22,1.65e+02,2,,3.36e+02,2.27e+00,2,1.58e+01
"1/0366227562.09697",2014-12-09T17:52:46.130,13884,419.00,62.28,61.99,"10:10:57",122.28,0.070,1.120,86.78,1.18e+02,2,,1.72e+02,2.02e+00,1,1.77e+01
"1/0366227569.45283",2014-12-09T17:52:53.673,13884,422.00,61.81,61.52,"10:29:24",122.20,0.080,1.120,86.34,1.12e+02,2,,1.56e+02,1.69e+00,2,2.11e+01
"1/0366227577.15333",2014-12-09T17:53:01.216,13884,424.00,61.34,61.04,"10:47:51",122.12,0.090,1.120,85.90,1.44e+02,2,,2.58e+02,1.82e+00,2,1.96e+01
"1/0366227584.50919",2014-12-09T17:53:08.759,13884,427.00,60.87,60.57,"11:06:19",122.04,0.090,1.120,85.46,1.19e+02,2,,1.76e+02,1.98e+00,2,1.80e+01
"1/0366227592.20969",2014-12-09T17:53:16.302,13884,430.00,60.40,60.10,"11:22:29",121.97,0.100,1.120,85.02,1.11e+02,2,,1.52e+02,2.04e+00,1,1.75e+01
"1/0366227599.56620",2014-12-09T17:53:23.846,13884,432.00,59.93,59.63,"11:38:39",121.90,0.110,1.120,84.58,7.94e+01,2,,7.82e+01,1.83e+00,2,1.96e+01
"1/0366227607.26670",2014-12-09T17:53:31.389,13884,435.00,59.46,59.16,"11:54:49",121.83,0.120,1.120,84.15,7.13e+01,2,,6.31e+01,1.82e+00,2,1.96e+01
"1/0366227614.62256",2014-12-09T17:53:38.932,13884,438.00,59.00,58.69,"12:10:59",121.76,0.130,1.120,83.71,8.84e+01,2,,9.69e+01,1.75e+00,2,2.05e+01
"1/0366227622.32306",2014-12-09T17:53:46.475,13884,442.00,58.53,58.22,"12:24:51",121.70,0.140,1.120,83.28,8.63e+01,2,,9.24e+01,1.95e+00,1,1.83e+01
"1/0366227630.02356",2014-12-09T17:53:54.018,13884,445.00,58.06,57.75,"12:38:43",121.64,0.150,1.120,82.84,8.87e+01,2,,9.75e+01,2.20e+00,2,1.63e+01
"1/0366227637.38008",2014-12-09T17:54:01.562,13884,448.00,57.60,57.28,"12:50:18",121.59,0.150,1.120,82.41,1.15e+02,2,,1.64e+02,2.85e+00,1,1.25e+01
"1/0366227645.08058",2014-12-09T17:54:09.105,13884,452.00,57.13,56.82,"13:04:11",121.53,0.160,1.120,81.97,1.11e+02,2,,1.53e+02,2.00e+00,2,1.78e+01
"1/0366227652.43644",2014-12-09T17:54:16.648,13884,455.00,56.67,56.35,"13:15:45",121.48,0.170,1.120,81.54,1.53e+02,2,,2.90e+02,1.83e+00,2,1.96e+01
"1/0366227660.13694",2014-12-09T17:54:24.191,13884,459.00,56.21,55.89,"13:27:20",121.43,0.180,1.120,81.11,1.72e+02,2,,3.65e+02,1.70e+00,2,2.10e+01
"1/0366227667.49280",2014-12-09T17:54:31.734,13884,462.00,55.74,55.42,"13:38:55",121.38,0.190,1.120,80.68,2.51e+02,2,,7.84e+02,1.85e+00,1,1.93e+01
"1/0366227675.19396",2014-12-09T17:54:39.278,13884,466.00,55.28,54.96,"13:50:30",121.33,0.200,1.120,80.25,3.35e+02,2,,1.39e+03,1.92e+00,1,1.86e+01
"1/0366227682.54982",2014-12-09T17:54:46.821,13884,470.00,54.82,54.50,"13:59:48",121.29,0.210,1.110,79.82,2.61e+02,2,,8.44e+02,1.49e+00,2,2.39e+01
"1/0366227690.25032",2014-12-09T17:54:54.364,13884,474.00,54.36,54.04,"14:09:05",121.25,0.210,1.110,79.39,3.61e+02,2,,1.62e+03,2.04e+00,1,1.75e+01
"1/0366227697.60618",2014-12-09T17:55:01.907,13884,478.00,53.90,53.58,"14:18:22",121.21,0.220,1.110,78.97,3.54e+02,2,,1.55e+03,1.86e+00,1,1.92e+01
"1/0366227705.30668",2014-12-09T17:55:09.450,13884,482.00,53.44,53.12,"14:27:40",121.17,0.230,1.110,78.54,1.40e+02,2,,2.41e+02,1.32e+00,3,2.70e+01
"1/0366227713.00783",2014-12-09T17:55:16.994,13884,486.00,52.99,52.66,"14:36:57",121.13,0.240,1.110,78.12,9.54e+01,2,,1.13e+02,1.32e+00,3,2.70e+01
"1/0366227720.36369",2014-12-09T17:55:24.537,13884,490.00,52.53,52.20,"14:46:14",121.09,0.250,1.110,77.69,1.17e+02,2,,1.70e+02,1.36e+00,2,2.63e+01
"1/0366227728.06419",2014-12-09T17:55:32.080,13884,495.00,52.07,51.74,"14:53:14",121.06,0.260,1.110,77.27,1.22e+02,2,,1.85e+02,1.30e+00,3,2.75e+01
"1/0366227735.42005",2014-12-09T17:55:39.623,13884,499.00,51.62,51.29,"15:00:14",121.03,0.270,1.110,76.85,1.28e+02,2,,2.02e+02,1.35e+00,2,2.64e+01
"1/0366227743.12055",2014-12-09T17:55:47.166,13884,504.00,51.17,50.83,"15:07:14",121.00,0.270,1.110,76.42,7.55e+01,2,,7.06e+01,1.47e+00,3,2.44e+01
"1/0366227750.47707",2014-12-09T17:55:54.710,13884,508.00,50.71,50.38,"15:16:31",120.96,0.280,1.110,76.00,6.90e+01,2,,5.90e+01,1.50e+00,2,2.38e+01
"1/0366227758.17757",2014-12-09T17:56:02.253,13884,513.00,50.26,49.93,"15:21:14",120.94,0.290,1.110,75.59,6.82e+01,2,,5.77e+01,1.42e+00,2,2.52e+01
"1/0366227765.53343",2014-12-09T17:56:09.796,13884,518.00,49.81,49.48,"15:28:14",120.91,0.300,1.110,75.17,6.07e+01,2,,4.57e+01,1.40e+00,2,2.56e+01
"1/0366227773.23393",2014-12-09T17:56:17.339,13884,523.00,49.36,49.03,"15:35:13",120.88,0.310,1.110,74.75,5.43e+01,2,,3.65e+01,1.40e+00,1,2.55e+01
"1/0366227780.58979",2014-12-09T17:56:24.882,13884,528.00,48.91,48.58,"15:39:56",120.86,0.320,1.110,74.34,5.24e+01,2,,3.40e+01,1.27e+00,2,2.81e+01
"1/0366227788.29094",2014-12-09T17:56:32.426,13884,533.00,48.47,48.13,"15:46:56",120.83,0.330,1.110,73.92,5.81e+01,2,,4.19e+01,1.30e+00,1,2.75e+01
"1/0366227795.64681",2014-12-09T17:56:39.969,13884,538.00,48.02,47.68,"15:51:38",120.81,0.330,1.110,73.51,7.10e+01,2,,6.25e+01,1.32e+00,1,2.70e+01
"1/0366227803.34731",2014-12-09T17:56:47.512,13884,543.00,47.57,47.24,"15:56:20",120.79,0.340,1.100,73.10,6.62e+01,2,,5.43e+01,1.37e+00,1,2.60e+01
"1/0366227811.04781",2014-12-09T17:56:55.055,13884,548.00,47.13,46.79,"16:01:03",120.77,0.350,1.100,72.69,5.79e+01,2,,4.16e+01,1.33e+00,1,2.68e+01
"1/0366227818.40367",2014-12-09T17:57:02.598,13884,554.00,46.69,46.35,"16:05:45",120.75,0.360,1.100,72.28,4.81e+01,2,,2.86e+01,1.39e+00,1,2.57e+01
"1/0366227826.10482",2014-12-09T17:57:10.142,13884,559.00,46.24,45.91,"16:10:27",120.73,0.370,1.100,71.87,5.22e+01,2,,3.37e+01,,,
"1/0366227833.46068",2014-12-09T17:57:17.685,13884,565.00,45.80,45.47,"16:15:10",120.71,0.380,1.100,71.46,5.20e+01,2,,3.36e+01,1.39e+00,1,2.57e+01
"1/0366227841.16118",2014-12-09T17:57:25.228,13884,570.00,45.36,45.03,"16:19:52",120.69,0.380,1.100,71.05,5.36e+01,2,,3.57e+01,1.41e+00,1,2.54e+01
"1/0366227848.51704",2014-12-09T17:57:32.771,13884,576.00,44.93,44.59,"16:22:17",120.68,0.390,1.100,70.65,4.83e+01,2,,2.90e+01,1.31e+00,1,2.73e+01
"1/0366227856.21754",2014-12-09T17:57:40.314,13884,582.00,44.49,44.16,"16:26:59",120.66,0.400,1.100,70.25,4.55e+01,1,,2.57e+01,1.40e+00,1,2.56e+01
"1/0366227863.57406",2014-12-09T17:57:47.858,13884,588.00,44.05,43.72,"16:29:24",120.65,0.410,1.100,69.84,4.58e+01,1,,2.60e+01,1.35e+00,2,2.64e+01
"1/0366227871.27456",2014-12-09T17:57:55.401,13884,593.00,43.62,43.29,"16:34:07",120.63,0.420,1.090,69.44,5.23e+01,2,,3.39e+01,1.20e+00,1,2.98e+01
"1/0366227878.63042",2014-12-09T17:58:02.944,13884,599.00,43.18,42.85,"16:36:31",120.62,0.430,1.090,69.04,5.58e+01,2,,3.87e+01,1.21e+00,2,2.94e+01